MOST

Last updated on Thu Oct 30 2025 00:03:36 GMT+0000 (Coordinated Universal Time)

1 27843U 03031D 25302.51626380 .00000141 00000+0 84799-4 0 9990 2 27843 98.7084 308.4621 0009576 192.3665 167.7279 14.21251695157946
UTC large
Height (km)
Speed (km/s)
/
Latitude / Longitude
Inclination (degrees)
Orbital Period (minutes)
Azimuth
Elevation
Range (km)
Doppler Factor

Next 0 passes for location: London (51.5072 / 0.1276)

Sorry there are no passes over London.